July 24, 2016
Temp
 
96.5 °F
 
Heat Idx
 
97.9 °F
 
Dew Pt.
 
59.9 °F
 
Humidity
 
30%
 
Pressure
 
1011.1 hPa 
  falling slowly
Wind
 
6.0 mph 
    W
Rain
 
0.00 in 
  0.00 in/hr
UV index
 
---  
 
Solar rad.
 
100 W/m²
 
This
Afternoon
This Afternoon: Sunny and hot, with a high near 96. Southwest wind around 10 mph, with gusts as high as 15 mph.
Hot
Tonight

Tonight: Clear, with a low around 68. Southwest wind 5 to 10 mph becoming light south southeast  in the evening.
Clear
Hi 96 °F Lo 68 °F
Statistics - 7/24/2016
Max Temp 97.7 °F  3:05 pm
Min Temp 68.6 °F  5:55 am
Max Dew Pt 65.7 °F  11:15 am
Min Dew Pt 40.9 °F  1:55 am
Max Pressure 1012.5 hPa  11:05 am
Min Pressure 1008.2 hPa  3:30 am
Max Wind 13 mph  3:00 pm
Max UV —   —
Max Solar —   —
Max Rainfall Rate —   —
Total Precipitation —   
Current Temp 96.7 °F  3:15 pm
Temp 24hr ago 99.8 °F  3:15 pm
Difference -3.1 °F  
Temp Rate -2.1 °F/hr  
Pressure Rate -0.1 hPa/hr  
time temp dew pt pressure uv solar wind wind speed rainfall rate
00:00 75.8 °F 45.4 °F 1009.1 hPa  Calm    
00:05 75.9 °F 45.5 °F 1009.0 hPa  Calm    
00:10 75.7 °F 43.7 °F 1009.0 hPa  Calm    
00:15 75.8 °F 43.8 °F 1009.0 hPa  Calm    
00:20 75.9 °F 43.1 °F 1009.0 hPa  Calm    
00:25 75.7 °F 43.7 °F 1009.0 hPa  Calm    
00:30 75.7 °F 42.9 °F 1008.9 hPa  Calm    
00:35 75.6 °F 42.8 °F 1008.8 hPa  Calm    
00:40 75.4 °F 41.8 °F 1008.8 hPa  Calm    
00:45 75.7 °F 42.9 °F 1008.8 hPa  Calm    
00:50 75.5 °F 41.0 °F 1008.8 hPa  Calm    
00:55 75.3 °F 42.6 °F 1008.6 hPa  Calm    
01:00 75.2 °F 42.5 °F 1008.7 hPa  Calm    
01:05 75.0 °F 42.3 °F 1008.6 hPa  Calm    
01:10 75.1 °F 42.4 °F 1008.6 hPa  Calm    
01:15 75.3 °F 42.6 °F 1008.5 hPa  Calm    
01:20 75.0 °F 42.3 °F 1008.5 hPa  Calm    
01:25 75.0 °F 41.4 °F 1008.6 hPa  Calm    
01:30 74.9 °F 42.2 °F 1008.6 hPa  Calm    
01:35 74.5 °F 41.9 °F 1008.6 hPa  Calm    
01:40 74.3 °F 41.7 °F 1008.5 hPa  Calm    
01:45 74.5 °F 41.0 °F 1008.4 hPa  Calm    
01:50 74.7 °F 42.0 °F 1008.5 hPa  Calm    
01:55 74.4 °F 40.9 °F 1008.5 hPa  Calm    
02:00 74.4 °F 41.8 °F 1008.5 hPa  Calm    
02:05 74.3 °F 41.7 °F 1008.5 hPa  Calm    
02:10 74.0 °F 41.4 °F 1008.5 hPa  Calm    
02:15 73.5 °F 42.6 °F 1008.5 hPa  Calm    
02:20 73.4 °F 41.7 °F 1008.5 hPa  Calm    
02:25 73.7 °F 42.8 °F 1008.5 hPa  Calm    
02:30 73.2 °F 42.4 °F 1008.5 hPa  Calm    
02:35 72.8 °F 42.8 °F 1008.5 hPa  Calm    
02:40 72.6 °F 41.8 °F 1008.5 hPa  Calm    
02:45 72.8 °F 41.2 °F 1008.5 hPa  Calm    
02:50 72.8 °F 42.0 °F 1008.5 hPa  Calm    
02:55 72.5 °F 42.5 °F 1008.4 hPa  Calm    
03:00 72.3 °F 42.3 °F 1008.4 hPa  Calm    
03:05 72.0 °F 42.8 °F 1008.4 hPa  Calm    
03:10 72.1 °F 41.4 °F 1008.4 hPa  Calm    
03:15 72.3 °F 41.6 °F 1008.5 hPa  Calm    
03:20 72.1 °F 42.2 °F 1008.4 hPa  Calm    
03:25 72.2 °F 41.5 °F 1008.3 hPa  Calm    
03:30 72.3 °F 41.6 °F 1008.3 hPa  Calm    
03:35 71.9 °F 42.0 °F 1008.3 hPa  Calm    
03:40 71.8 °F 42.7 °F 1008.3 hPa  Calm    
03:45 71.7 °F 41.8 °F 1008.4 hPa  Calm    
03:50 72.3 °F 41.6 °F 1008.4 hPa  Calm    
03:55 72.4 °F 42.4 °F 1008.4 hPa  Calm    
04:00 72.2 °F 42.3 °F 1008.5 hPa  Calm    
04:05 72.1 °F 42.9 °F 1008.6 hPa  Calm    
04:10 71.7 °F 42.6 °F 1008.7 hPa  Calm    
04:15 71.7 °F 43.3 °F 1008.7 hPa  Calm    
04:20 71.6 °F 43.2 °F 1008.7 hPa  Calm    
04:25 71.1 °F 43.5 °F 1008.8 hPa  Calm    
04:30 71.1 °F 44.2 °F 1008.8 hPa  Calm    
04:35 71.0 °F 44.1 °F 1008.9 hPa  Calm    
04:40 71.0 °F 43.4 °F 1008.8 hPa  Calm    
04:45 71.5 °F 43.1 °F 1008.8 hPa  Calm    
04:50 71.3 °F 43.7 °F 1008.9 hPa  Calm    
04:55 71.0 °F 44.8 °F 1009.0 hPa  WNW 1 mph   
05:00 71.0 °F 48.6 °F 1009.2 hPa  Calm    
05:05 71.1 °F 46.2 °F 1009.2 hPa  Calm    
05:10 71.1 °F 45.5 °F 1009.1 hPa  Calm    
05:15 70.8 °F 45.3 °F 1009.1 hPa  Calm    
05:20 70.4 °F 44.9 °F 1009.3 hPa  Calm    
05:25 70.3 °F 44.8 °F 1009.4 hPa  Calm    
05:30 69.9 °F 45.1 °F 1009.5 hPa  Calm    
05:35 69.4 °F 45.9 °F 1009.5 hPa  Calm    
05:40 69.2 °F 46.4 °F 1009.5 hPa  Calm    
05:45 69.0 °F 46.8 °F 1009.5 hPa  Calm    
05:50 68.7 °F 47.6 °F 1009.6 hPa  Calm    
05:55 68.7 °F 48.8 °F 1009.6 hPa  Calm    
06:00 68.7 °F 49.3 °F 1009.6 hPa  Calm    
06:05 69.0 °F 50.1 °F 1009.7 hPa  Calm    
06:10 68.9 °F 50.5 °F 1009.7 hPa  Calm    
06:15 69.2 °F 50.8 °F 1009.8 hPa  Calm    
06:20 69.4 °F 50.5 °F 1009.8 hPa  Calm    
06:25 69.5 °F 50.6 °F 1009.8 hPa  Calm    
06:30 69.2 °F 50.8 °F 1009.9 hPa  Calm    
06:35 69.2 °F 51.3 °F 1009.9 hPa  Calm    
06:40 69.0 °F 51.7 °F 1010.0 hPa  Calm    
06:45 69.1 °F 52.2 °F 1010.0 hPa  Calm    
06:50 69.2 °F 52.8 °F 1010.1 hPa  Calm    
06:55 69.3 °F 53.9 °F 1010.1 hPa  Calm    
07:00 69.4 °F 54.0 °F 1010.2 hPa  Calm    
07:05 69.7 °F 54.7 °F 1010.3 hPa  Calm    
07:10 70.2 °F 55.2 °F 1010.3 hPa  Calm    
07:15 70.5 °F 55.5 °F 1010.3 hPa  Calm    
07:20 70.8 °F 55.8 °F 1010.2 hPa  Calm    
07:25 71.1 °F 56.0 °F 1010.2 hPa  Calm    
07:30 71.5 °F 57.3 °F 1010.2 hPa  Calm    
07:35 72.0 °F 56.9 °F 1010.3 hPa  Calm    
07:40 73.0 °F 55.9 °F 1010.4 hPa  Calm    
07:45 74.0 °F 56.3 °F 1010.4 hPa  Calm    
07:50 74.4 °F 56.1 °F 1010.4 hPa  Calm    
07:55 74.8 °F 57.0 °F 1010.5 hPa  Calm    
08:00 75.4 °F 57.1 °F 1010.5 hPa  Calm    
08:05 75.9 °F 57.5 °F 1010.6 hPa  NW 1 mph   
08:10 76.1 °F 57.7 °F 1010.6 hPa  Calm    
08:15 76.5 °F 58.1 °F 1010.6 hPa  Calm    
08:20 76.9 °F 58.4 °F 1010.5 hPa  Calm    
08:25 77.6 °F 58.0 °F 1010.6 hPa  Calm    
08:30 78.0 °F 57.8 °F 1010.6 hPa  Calm    
08:35 78.7 °F 57.9 °F 1010.7 hPa  E 1 mph   
08:40 79.0 °F 57.6 °F 1010.9 hPa  Calm    
08:45 79.2 °F 57.2 °F 1010.9 hPa  Calm    
08:50 79.2 °F 58.9 °F 1010.9 hPa  Calm    
08:55 79.5 °F 58.6 °F 1011.0 hPa  Calm    
09:00 79.6 °F 58.7 °F 1011.0 hPa  Calm    
09:05 80.1 °F 58.6 °F 1011.0 hPa  Calm    
09:10 80.6 °F 59.1 °F 1011.1 hPa  Calm    
09:15 80.9 °F 58.2 °F 1011.1 hPa  Calm    
09:20 80.9 °F 59.9 °F 1011.2 hPa  Calm    
09:25 81.5 °F 59.9 °F 1011.2 hPa  N 2 mph   
09:30 81.9 °F 59.1 °F 1011.3 hPa  SSW 3 mph   
09:35 82.1 °F 59.8 °F 1011.5 hPa  SSW 3 mph   
09:40 82.3 °F 60.0 °F 1011.5 hPa  SSW 4 mph   
09:45 82.3 °F 60.0 °F 1011.4 hPa  SSE 3 mph   
09:50 83.2 °F 61.4 °F 1011.4 hPa  SSW 4 mph   
09:55 83.3 °F 60.9 °F 1011.5 hPa  Calm    
10:00 83.6 °F 61.8 °F 1011.8 hPa  S 5 mph   
10:05 83.9 °F 61.5 °F 1011.8 hPa  SSW 5 mph   
10:10 84.0 °F 61.0 °F 1011.9 hPa  SW 5 mph   
10:15 84.5 °F 61.4 °F 1011.9 hPa  SSW 6 mph   
10:20 84.8 °F 61.1 °F 1012.0 hPa  SSW 7 mph   
10:25 84.8 °F 62.3 °F 1012.0 hPa  SW 4 mph   
10:30 84.7 °F 62.8 °F 1012.1 hPa  SSW 6 mph   
10:35 84.9 °F 63.6 °F 1012.2 hPa  SW 7 mph   
10:40 85.6 °F 63.6 °F 1012.3 hPa  SW 5 mph   
10:45 85.2 °F 63.9 °F 1012.3 hPa  SSW 6 mph   
10:50 85.1 °F 64.3 °F 1012.4 hPa  SSW 5 mph   
10:55 85.6 °F 64.8 °F 1012.3 hPa  SW 4 mph   
11:00 86.4 °F 65.5 °F 1012.4 hPa  S 6 mph   
11:05 86.3 °F 64.9 °F 1012.5 hPa  SSW 5 mph   
11:10 86.0 °F 64.6 °F 1012.4 hPa  Calm    
11:15 86.6 °F 65.7 °F 1012.4 hPa  W 7 mph   
11:20 87.0 °F 65.5 °F 1012.4 hPa  SSW 3 mph   
11:25 87.5 °F 65.4 °F 1012.3 hPa  SW 6 mph   
11:30 87.5 °F 64.8 °F 1012.3 hPa  SW 8 mph   
11:35 87.8 °F 65.0 °F 1012.2 hPa  WSW 4 mph   
11:40 88.7 °F 65.2 °F 1012.2 hPa  WNW 8 mph   
11:45 89.9 °F 65.7 °F 1012.2 hPa  SSW 6 mph   
11:50 90.3 °F 65.4 °F 1012.3 hPa  SSW 6 mph   
11:55 90.3 °F 65.4 °F 1012.3 hPa  SW 9 mph   
12:00 90.7 °F 65.1 °F 1012.3 hPa  SSW 6 mph   
12:05 91.2 °F 65.5 °F 1012.3 hPa  WSW 8 mph   
12:10 91.1 °F 65.4 °F 1012.3 hPa  SW 8 mph   
12:15 91.2 °F 64.9 °F 1012.2 hPa  WSW 6 mph   
12:20 92.3 °F 65.1 °F 1012.1 hPa  WSW 8 mph   
12:25 92.5 °F 64.6 °F 1012.1 hPa  WSW 5 mph   
12:30 92.9 °F 64.2 °F 1012.1 hPa  WSW 8 mph   
12:35 92.5 °F 64.6 °F 1012.0 hPa  WSW 8 mph   
12:40 93.3 °F 63.9 °F 1012.0 hPa  WSW 8 mph   
12:45 93.3 °F 63.1 °F 1012.0 hPa  WSW 10 mph   
12:50 93.5 °F 63.3 °F 1012.0 hPa  SW 7 mph   
12:55 93.8 °F 62.8 °F 1012.0 hPa  WNW 6 mph   
13:00 93.9 °F 62.8 °F 1011.9 hPa  W 8 mph   
13:05 93.8 °F 61.1 °F 1011.8 hPa  W 9 mph   
13:10 94.8 °F 61.2 °F 1011.9 hPa  WSW 8 mph   
13:15 95.1 °F 61.4 °F 1011.7 hPa  WSW 10 mph   
13:20 95.7 °F 60.2 °F 1011.8 hPa  W 8 mph   
13:25 96.0 °F 60.4 °F 1011.7 hPa  WSW 7 mph   
13:30 96.5 °F 60.9 °F 1011.7 hPa  W 9 mph   
13:35 96.0 °F 58.6 °F 1011.7 hPa  WSW 9 mph   
13:40 96.6 °F 60.0 °F 1011.6 hPa  WSW 10 mph   
13:45 97.0 °F 58.4 °F 1011.6 hPa  WSW 11 mph   
13:50 97.0 °F 59.4 °F 1011.6 hPa  SW 11 mph   
13:55 96.9 °F 57.3 °F 1011.6 hPa  WSW 10 mph   
14:00 96.6 °F 59.1 °F 1011.5 hPa  WSW 10 mph   
14:05 96.9 °F 59.3 °F 1011.6 hPa  WSW 8 mph   
14:10 97.1 °F 59.5 °F 1011.5 hPa  W 9 mph   
14:15 96.3 °F 59.8 °F 1011.5 hPa  W 9 mph   
14:20 96.5 °F 59.9 °F 1011.4 hPa  WSW 8 mph   
14:25 96.7 °F 59.2 °F 1011.4 hPa  WNW 9 mph   
14:30 96.6 °F 60.0 °F 1011.4 hPa  SW 11 mph   
14:35 96.6 °F 60.0 °F 1011.4 hPa  SW 9 mph   
14:40 96.9 °F 59.3 °F 1011.4 hPa  W 11 mph   
14:45 96.8 °F 58.3 °F 1011.4 hPa  WSW 8 mph   
14:50 97.3 °F 58.7 °F 1011.3 hPa  WSW 10 mph   
14:55 97.4 °F 58.8 °F 1011.3 hPa  W 8 mph   
15:00 97.7 °F 60.0 °F 1011.3 hPa  SW 13 mph   
15:05 96.7 °F 59.2 °F 1011.2 hPa  W 10 mph   
15:10 96.6 °F 60.0 °F 1011.2 hPa  WSW 10 mph   
15:15 96.7 °F 61.0 °F 1011.2 hPa  SW 11 mph